When you browse on this site, cookies collect data to enhance your experience and personalize the content and advertising you see.
Visit our Privacy Policy to learn more. By continuing to use the site, you agree to this use of cookies and data.
  • en Suisse
  • Liste des pays
  • À 7 jours
  • Température de l'eau
  • Carte météo
  • Widgets météo
  • user-avatar
    Se connecter

    Météo par heure à Leicester

    Ce jour, 19 Septembre, Jeudi

    Heure Température Précipitation Vent Pression Humidité
    00:00 +11°C° 0 mm 0 m/s 766 mmHg 85%
    01:00 +11°C° 0 mm 0 m/s 766 mmHg 86%
    02:00 +10°C° 0 mm 0 m/s 766 mmHg 86%
    03:00 +10°C° 0 mm 0 m/s 766 mmHg 87%
    04:00 +10°C° 0 mm 0 m/s 766 mmHg 87%
    05:00 +10°C° 0 mm 0 m/s 766 mmHg 87%
    06:00 +10°C° 0 mm 0 m/s 766 mmHg 88%
    07:00 +12°C° 0 mm 0 m/s 766 mmHg 82%
    08:00 +13°C° 0 mm 0 m/s 767 mmHg 76%
    09:00 +15°C° 0 mm 0 m/s 767 mmHg 70%
    10:00 +16°C° 0 mm 0 m/s 767 mmHg 66%
    11:00 +20°C° 0 mm 1 m/s 767 mmHg 61%
    12:00 +21°C° 0 mm 1 m/s 767 mmHg 57%
    13:00 +21°C° 0 mm 1 m/s 767 mmHg 56%
    14:00 +21°C° 0 mm 1 m/s 766 mmHg 55%
    15:00 +22°C° 0 mm 1 m/s 766 mmHg 54%
    16:00 +20°C° 0 mm 1 m/s 766 mmHg 58%
    17:00 +19°C° 0 mm 1 m/s 766 mmHg 63%
    18:00 +16°C° 0 mm 0 m/s 765 mmHg 68%
    19:00 +16°C° 0 mm 1 m/s 765 mmHg 71%
    20:00 +16°C° 0 mm 1 m/s 766 mmHg 73%
    21:00 +15°C° 0 mm 1 m/s 766 mmHg 75%
    22:00 +14°C° 0 mm 1 m/s 766 mmHg 77%
    23:00 +14°C° 0 mm 2 m/s 766 mmHg 79%

    Demain, 20 Septembre, Vendredi

    Heure Température Précipitation Vent Pression Humidité
    00:00 +13°C° 0 mm 2 m/s 765 mmHg 81%
    01:00 +13°C° 0 mm 2 m/s 765 mmHg 83%
    02:00 +12°C° 0 mm 2 m/s 765 mmHg 84%
    03:00 +12°C° 0 mm 2 m/s 764 mmHg 86%
    04:00 +12°C° 0 mm 2 m/s 764 mmHg 87%
    05:00 +10°C° 0 mm 2 m/s 764 mmHg 89%
    06:00 +10°C° 0 mm 2 m/s 763 mmHg 91%
    07:00 +13°C° 0 mm 2 m/s 763 mmHg 85%
    08:00 +13°C° 0 mm 3 m/s 764 mmHg 80%
    09:00 +16°C° 0 mm 3 m/s 764 mmHg 75%
    10:00 +17°C° 0 mm 3 m/s 763 mmHg 70%
    11:00 +18°C° 0 mm 4 m/s 762 mmHg 66%
    12:00 +20°C° 0 mm 4 m/s 762 mmHg 61%
    13:00 +20°C° 0 mm 5 m/s 761 mmHg 59%
    14:00 +20°C° 0 mm 5 m/s 761 mmHg 56%
    15:00 +20°C° 0 mm 5 m/s 760 mmHg 54%
    16:00 +19°C° 0 mm 5 m/s 759 mmHg 58%
    17:00 +16°C° 0 mm 5 m/s 759 mmHg 62%
    18:00 +15°C° 0 mm 4 m/s 758 mmHg 66%
    19:00 +14°C° 0 mm 4 m/s 758 mmHg 69%
    20:00 +13°C° 0 mm 5 m/s 758 mmHg 71%
    21:00 +12°C° 0 mm 5 m/s 758 mmHg 74%
    22:00 +12°C° 0 mm 5 m/s 757 mmHg 77%
    23:00 +12°C° 0 mm 5 m/s 757 mmHg 80%

    Après-demain, 21 Septembre, Samedi

    Heure Température Précipitation Vent Pression Humidité
    00:00 +12°C° 0 mm 5 m/s 756 mmHg 82%
    01:00 +12°C° 0 mm 4 m/s 756 mmHg 82%
    02:00 +12°C° 0 mm 4 m/s 755 mmHg 81%
    03:00 +11°C° 0 mm 4 m/s 755 mmHg 80%
    04:00 +11°C° 0 mm 4 m/s 754 mmHg 79%
    05:00 +10°C° 0 mm 5 m/s 754 mmHg 78%
    06:00 +10°C° 0 mm 5 m/s 753 mmHg 77%
    07:00 +12°C° 0 mm 5 m/s 753 mmHg 73%
    08:00 +14°C° 0 mm 6 m/s 753 mmHg 68%
    09:00 +15°C° 0 mm 6 m/s 752 mmHg 63%
    10:00 +17°C° 0 mm 6 m/s 752 mmHg 59%
    11:00 +19°C° 0 mm 6 m/s 751 mmHg 55%
    12:00 +21°C° 0 mm 6 m/s 751 mmHg 51%
    13:00 +21°C° 0 mm 6 m/s 750 mmHg 51%
    14:00 +22°C° 0 mm 6 m/s 750 mmHg 51%
    15:00 +22°C° 0 mm 6 m/s 749 mmHg 51%
    16:00 +21°C° 0 mm 5 m/s 749 mmHg 56%
    17:00 +19°C° 0 mm 5 m/s 748 mmHg 61%
    18:00 +18°C° 0 mm 4 m/s 748 mmHg 66%
    19:00 +17°C° 0 mm 4 m/s 748 mmHg 68%
    20:00 +17°C° 0 mm 4 m/s 748 mmHg 69%
    21:00 +15°C° 0 mm 4 m/s 747 mmHg 71%
    22:00 +15°C° 0.3 mm 4 m/s 747 mmHg 75%
    23:00 +15°C° 0.3 mm 4 m/s 746 mmHg 79%

    22 Septembre, Dimanche

    Heure Température Précipitation Vent Pression Humidité
    00:00 +17°C° 0.3 mm 3 m/s 746 mmHg 83%
    01:00 +17°C° 0.4 mm 3 m/s 745 mmHg 85%
    02:00 +17°C° 0.4 mm 3 m/s 745 mmHg 87%
    03:00 +17°C° 0.4 mm 2 m/s 745 mmHg 89%
    04:00 +17°C° 0 mm 2 m/s 744 mmHg 89%
    05:00 +17°C° 0 mm 2 m/s 744 mmHg 90%
    06:00 +17°C° 0 mm 2 m/s 744 mmHg 90%
    07:00 +17°C° 0.3 mm 2 m/s 744 mmHg 90%
    08:00 +18°C° 0.3 mm 2 m/s 744 mmHg 91%
    09:00 +18°C° 0.3 mm 2 m/s 744 mmHg 91%
    10:00 +17°C° 0.8 mm 3 m/s 744 mmHg 90%
    11:00 +17°C° 0.8 mm 4 m/s 744 mmHg 90%
    12:00 +15°C° 0.8 mm 5 m/s 744 mmHg 89%
    13:00 +17°C° 0.3 mm 4 m/s 744 mmHg 82%
    14:00 +18°C° 0.3 mm 4 m/s 744 mmHg 75%
    15:00 +19°C° 0.3 mm 4 m/s 744 mmHg 68%
    16:00 +18°C° 0.1 mm 3 m/s 744 mmHg 72%
    17:00 +17°C° 0.1 mm 3 m/s 744 mmHg 75%
    18:00 +16°C° 0.1 mm 2 m/s 744 mmHg 79%
    19:00 +16°C° 0 mm 2 m/s 745 mmHg 82%
    20:00 +15°C° 0 mm 2 m/s 745 mmHg 86%
    21:00 +14°C° 0 mm 2 m/s 746 mmHg 89%
    22:00 +13°C° 0.1 mm 3 m/s 746 mmHg 90%
    23:00 +13°C° 0.1 mm 3 m/s 746 mmHg 90%

    23 Septembre, Lundi

    Heure Température Précipitation Vent Pression Humidité
    00:00 +13°C° 0.1 mm 4 m/s 747 mmHg 90%
    01:00 +12°C° 0.1 mm 4 m/s 747 mmHg 91%
    02:00 +12°C° 0.1 mm 4 m/s 747 mmHg 91%
    03:00 +11°C° 0.1 mm 4 m/s 748 mmHg 91%
    04:00 +11°C° 0 mm 3 m/s 748 mmHg 92%
    05:00 +10°C° 0 mm 3 m/s 748 mmHg 92%
    06:00 +10°C° 0 mm 3 m/s 748 mmHg 93%
    07:00 +11°C° 0 mm 3 m/s 748 mmHg 88%
    08:00 +12°C° 0 mm 4 m/s 748 mmHg 83%
    09:00 +14°C° 0 mm 4 m/s 748 mmHg 78%
    10:00 +13°C° 0.1 mm 4 m/s 748 mmHg 80%
    11:00 +13°C° 0.1 mm 5 m/s 747 mmHg 83%
    12:00 +13°C° 0.1 mm 5 m/s 747 mmHg 85%
    13:00 +13°C° 0.8 mm 5 m/s 746 mmHg 88%
    14:00 +14°C° 0.8 mm 5 m/s 745 mmHg 91%
    15:00 +14°C° 0.8 mm 5 m/s 744 mmHg 94%
    16:00 +15°C° 0.7 mm 4 m/s 743 mmHg 94%
    17:00 +15°C° 0.7 mm 4 m/s 743 mmHg 95%
    18:00 +15°C° 0.7 mm 4 m/s 742 mmHg 96%
    19:00 +15°C° 0.2 mm 4 m/s 742 mmHg 95%
    20:00 +16°C° 0.2 mm 5 m/s 743 mmHg 94%
    21:00 +16°C° 0.2 mm 5 m/s 743 mmHg 93%
    22:00 +16°C° 0.1 mm 5 m/s 743 mmHg 91%
    23:00 +16°C° 0.1 mm 6 m/s 743 mmHg 90%

    24 Septembre, Mardi

    Heure Température Précipitation Vent Pression Humidité
    00:00 +15°C° 0.1 mm 6 m/s 743 mmHg 88%
    01:00 +15°C° 0 mm 6 m/s 743 mmHg 89%
    02:00 +15°C° 0 mm 6 m/s 743 mmHg 90%
    03:00 +14°C° 0 mm 5 m/s 744 mmHg 91%
    04:00 +14°C° 0 mm 5 m/s 744 mmHg 91%
    05:00 +14°C° 0 mm 5 m/s 744 mmHg 90%
    06:00 +14°C° 0 mm 5 m/s 744 mmHg 90%
    07:00 +15°C° 0 mm 5 m/s 744 mmHg 87%
    08:00 +16°C° 0 mm 6 m/s 744 mmHg 84%
    09:00 +16°C° 0 mm 6 m/s 744 mmHg 81%
    10:00 +17°C° 0 mm 6 m/s 743 mmHg 79%
    11:00 +17°C° 0 mm 6 m/s 743 mmHg 77%
    12:00 +19°C° 0 mm 5 m/s 743 mmHg 75%
    13:00 +19°C° 0.6 mm 6 m/s 742 mmHg 78%
    14:00 +19°C° 0.6 mm 6 m/s 741 mmHg 81%
    15:00 +17°C° 0.6 mm 6 m/s 741 mmHg 85%
    16:00 +17°C° 0.3 mm 6 m/s 741 mmHg 83%
    17:00 +16°C° 0.3 mm 6 m/s 741 mmHg 81%
    18:00 +16°C° 0.3 mm 6 m/s 741 mmHg 79%
    19:00 +15°C° 0 mm 6 m/s 741 mmHg 81%
    20:00 +14°C° 0 mm 6 m/s 742 mmHg 83%
    21:00 +13°C° 0 mm 6 m/s 742 mmHg 85%
    22:00 +13°C° 0 mm 6 m/s 742 mmHg 86%
    23:00 +13°C° 0 mm 6 m/s 742 mmHg 87%
    Voir plus